Flag for Barbados Weather past 2 weeks in Bridgetown, Barbados

Now
81 °F

Sprinkles. Passing clouds.


Feels Like: 87 °F
Forecast: 81 / 87 °F
Wind: 14 mph from Northeast

Location: Grantley Adams

Current Time: Oct 22, 2014 at 1:27:51 AM

Latest Report: Oct 22, 2014 at 1:00 AM


Visibility: N/A

Pressure: 29.86 "Hg

Humidity: 89%

Dew point: 77 °F

Location of BridgetownLocation

Historic Weather in Bridgetown — Graph

°F

Bridgetown temperature yesterday

Maximum temperature yesterday: 88 °F (at 11:00 AM)
Minimum temperature yesterday: 75 °F (at 1:00 AM)
Average temperature yesterday: 82 °F

Past Weeks' High & Low Weather Summary

 TemperatureHumidityPressure
High88 °F (Oct 10, 11:00 AM)100% (Oct 7, 5:00 AM)30.01 "Hg (Oct 7, 5:00 AM)
Low73 °F (Oct 19, 1:00 AM)62% (Oct 19, 9:00 AM)29.77 "Hg (Oct 9, 4:00 PM)
Average81 °F81%29.89 "Hg
* Reported Midnight between Oct 6 and Oct 7 — Midnight between Oct 21 and Oct 22, Bridgetown, Weather by CustomWeather, © 2014

Note: Actual official high and low records may vary slightly from our data, if they occured in-between our weather recording intervals... More about our weather records

Advertising

Bridgetown weather history for previous 24 hours

 ConditionsComfort  
Time TempWeatherWind HumidityBarometerVisibility
12:00 AM
Oct 22
79 °FPassing clouds.10 mph94%29.89 "HgN/A
11:00 PM
Oct 21
77 °FPassing clouds.15 mph100%29.89 "HgN/A
10:00 PM79 °FPartly cloudy.7 mph89%29.92 "HgN/A
9:00 PM82 °FPartly cloudy.14 mph79%29.92 "HgN/A
8:00 PM82 °FPassing clouds.12 mph79%29.92 "HgN/A
7:00 PM82 °FPassing clouds.10 mph79%29.89 "HgN/A
6:00 PM82 °FPassing clouds.9 mph79%29.86 "HgN/A
5:00 PM84 °FBroken clouds.13 mph74%29.86 "HgN/A
4:00 PM84 °FBroken clouds.14 mph74%29.86 "HgN/A
3:00 PM84 °FBroken clouds.17 mph74%29.86 "Hg6 mi
2:00 PM86 °FScattered clouds.18 mph70%29.86 "Hg6 mi
1:00 PM88 °FBroken clouds.21 mph66%29.86 "HgN/A
12:00 PM86 °FBroken clouds.20 mph70%29.89 "HgN/A
11:00 AM88 °FBroken clouds.18 mph66%29.92 "HgN/A
10:00 AM86 °FBroken clouds.16 mph70%29.92 "HgN/A
9:00 AM86 °FBroken clouds.16 mph70%29.92 "HgN/A
8:00 AM84 °FBroken clouds.13 mph70%29.92 "HgN/A
7:00 AM81 °FPartly sunny.8 mph79%29.89 "HgN/A
6:00 AM77 °FPartly sunny.8 mph100%29.86 "HgN/A
5:00 AM77 °FPassing clouds.8 mph89%29.86 "HgN/A
4:00 AM77 °FPassing clouds.8 mph89%29.86 "HgN/A
3:00 AM77 °FPassing clouds.7 mph89%29.86 "HgN/A
2:00 AM77 °FPassing clouds.7 mph89%29.89 "HgN/A
1:00 AM75 °FPassing clouds.6 mph89%29.89 "HgN/A
Weather by CustomWeather, © 2014

See weather overviewHow to use our weather pages